Probability
0 0 0 0 0 0 0 0 0 0 0 0 0 0 0 0 0 0 0 0 0 0 0 0 0 0 0 0 0 0 0 0 0 0 0 0 0 0 0 0 0 0 0
0 0 0 0 0 0 0 0 0 0 0 0 0 0 0 0 0 0 0 0 0 0 0 0 0 0 0 0 0 0 0 0 0 0 0 0 0 0 0 0 0 0 0
0 0 0 0 0 0 0 0 0 0 0 0 0 0 0 0 0 0 0 0 0 0 0 0 0 0 0 0 0 0 0 0 0 0 0 0 0 0 0 0 0 0 0
0 0 0 0 0 0 0 0 0 0 0 0 0 0 0 0 0 0 0 0 0 0 0 0 0 0 0 0 0 0 0 0 0 0 0 0 0 0 0 0 0 0 0
0 0 0 0 0 0 0 0 0 0 0 0 0 0 0 0 0 0 0 0 0 0 0 0 0 0 0 0 0 0 0 0 0 0 0 0 0 0 0 0 0 0 0
0 0 0 0 0 0 0 0 0 0 0 0 0 0 0 0 0 0 0 0 0 0 0 0 0 0 0 0 0 0 0 0 0 0 0 0 0 0 0 0 0 0 0
0 0 0 0 0 0 0 0 0 0 0 0 0 0 0 0 0 0 0 0 0 0 0 0 0 0 0 0 0 0 0 0 0 0 0 0 0 0 0 0 0 0 0
0 0 0 0 0 0 0 0 0 0 0 0 0 0 0 0 0 0 0 0 0 0 0 0 0 0 0 0 0 0 0 0 0 0 0 0 0 0 0 0 0 0 0
0 0 0 0 0 0 0 0 0 0 0 0 0 0 0 0 0 0 0 0 0 0 0 0 0 0 0 0 0 0 0 0 0 0 0 0 0 0 0 0 0 0 0
0 0 0 0 0 0 0 0 0 0 0 0 0 0 0 0 0 0 0 0 0 0 0 0 0 0 0 0 0 0 0 0 0 0 0 0 0 0 0 0 0 0 0
0 0 0 0 0 0 0 0 0 0 0 0 0 0 0 0 0 0 0 0 0 0 0 0 0 0 0 0 0 0 0 0 0 0 0 0 0 0 0 0 0 0 0
0 0 0 0 0 0 0 0 0 0 0 0 0 0 0 0 0 0 0 0 0 0 0 0 0 0 0 0 0 0 0 0 0 0 0 0 0 0 0 0 0 0 0
0 0 0 0 0 0 0 0 0 0 0 0 0 0 0 0 0 0 0 0 0 0 0 0 0 0 0 0 0 0 0 0 0 0 0 0 0 0 0 0 0 0 0
0 0 0 0 0 0 0 0 0 0 0 0 0 0 0 0 0 0 0 0 0 0 0 0 0 0 0 0 0 0 0 0 0 0 0 0 0 0 0 0 0 0 0
0 0 0 0 0 0 0 0 0 0 0 0 0 0 0 0 0 0 0 0 0 0 0 0 0 0 0 0 0 0 0 0 0 0 0 0 0 0 0 0 0 0 0
0 0 0 0 0 0 0 0 0 0 0 0 0 0 0 0 0 0 0 0 0 0 0 0 0 0 0 0 0 0 0 0 0 0 0 0 0 0 0 0 0 0 0
0 0 0 0 0 0 0 0 0 0 0 0 0 0 0 0 0 0 0 0 0 0 0 0 0 0 0 0 0 0 0 0 0 0 0 0 0 0 0 0 0 0 0
0 0 0 0 0 0 0 0 0 0 0 0 0 0 0 0 0 0 0 0 0 0 0 0 0 0 0 0 0 0 0 0 0 0 0 0 0 0 0 0 0 0 0
0 0 0 0 0 0 0 0 0 0 0 0 0 0 0 0 0 0 0 0 0 0 0 0 0 0 0 0 0 0 0 0 0 0 0 0 0 0 0 0 0 0 0
0 0 0 0 0 0 0 0 0 0 0 0 0 0 0 0 0 0 0 0 0 0 0 0 0 0 0 0 0 0 0 0 0 0 0 0 0 0 0 0 0 0 0
0 0 0 0 0 0 0 0 0 0 0 0 0 0 0 0 0 0 0 0 0 0 0 0 0 0 0 0 0 0 0 0 0 0 0 0 0 0 0 0 0 0 0
0 0 0 0 0 0 0 0 0 0 0 0 0 0 0 0 0 0 0 0 0 0 0 0 0 0 0 0 0 0 0 0 0 0 0 0 0 0 0 0 0 0 0
0 0 0 0 0 0 0 0 0 0 0 0 0 0 0 0 0 0 0 0 0 0 0 0 0 0 0 0 0 0 0 0 0 0 0 0 0 0 0 0 0 0 0
0 0 0 0 0 0 0 0 0 0 0 0 0 0 0 0 0 0 0 0 0 0 0 0 0 0 0 0 0 0 0 0 0 0 0 0 0 0 0 0 0 0 0
0 0 0 0 0 0 0 0 0 0 0 0 0 0 0 0 0 0 0 0 0 0 0 0 0 0 0 0 0 0 0 0 0 0 0 0 0 0 0 0 0 0 0
0 0 0 0 0 0 0 0 0 0 0 0 0 0 0 0 0 0 0 0 0 0 0 0 0 0 0 0 0 0 0 0 0 0 0 0 0 0 0 0 0 0 0
Height
5711 5711 5711 5711 5710 5710 5709 5709 5708 5707 5707 5706 5705 5704 5703 5703 5702 5701 5700 5699 5698 5697 5695 5694 5692 5690 5688 5686 5684 5682 5679 5677 5675 5672 5668 5665 5661 5658 5654 5650 5646 5643 5639
5703 5703 5703 5702 5702 5701 5700 5699 5698 5697 5696 5695 5694 5693 5692 5691 5691 5690 5689 5687 5686 5685 5683 5682 5680 5678 5676 5673 5671 5668 5666 5663 5661 5659 5655 5651 5648 5644 5640 5636 5632 5629 5625
5694 5694 5693 5692 5691 5690 5689 5688 5687 5685 5684 5683 5682 5681 5680 5679 5678 5677 5676 5675 5674 5672 5671 5669 5667 5665 5663 5660 5658 5655 5653 5650 5647 5645 5642 5638 5634 5630 5627 5623 5618 5615 5611
5685 5684 5683 5682 5681 5679 5678 5676 5675 5673 5672 5671 5670 5669 5668 5667 5666 5664 5663 5662 5661 5659 5658 5656 5654 5652 5649 5647 5644 5642 5639 5636 5634 5631 5628 5624 5621 5616 5613 5609 5605 5601 5597
5675 5674 5672 5671 5670 5668 5666 5664 5663 5661 5660 5658 5657 5656 5655 5654 5653 5651 5650 5649 5648 5646 5645 5643 5640 5638 5636 5633 5631 5628 5626 5623 5620 5617 5614 5610 5606 5602 5599 5595 5591 5587 5583
5664 5663 5661 5659 5658 5656 5654 5652 5650 5649 5647 5645 5644 5643 5642 5640 5639 5638 5637 5636 5634 5633 5631 5629 5627 5625 5622 5620 5617 5614 5612 5609 5606 5603 5599 5596 5592 5588 5584 5580 5577 5574 5570
5652 5651 5649 5647 5645 5643 5641 5639 5638 5636 5634 5632 5631 5630 5628 5627 5625 5624 5623 5622 5621 5619 5617 5615 5613 5611 5608 5606 5603 5601 5598 5594 5591 5588 5585 5581 5577 5573 5570 5566 5562 5558 5555
5640 5638 5636 5634 5632 5630 5628 5626 5624 5623 5621 5619 5618 5616 5615 5613 5612 5610 5609 5608 5606 5605 5603 5601 5599 5596 5594 5591 5589 5586 5583 5579 5576 5573 5570 5566 5562 5558 5554 5551 5547 5544 5540
5627 5625 5623 5621 5619 5617 5615 5613 5611 5609 5607 5606 5604 5602 5601 5599 5598 5596 5595 5594 5592 5590 5588 5586 5584 5582 5579 5576 5574 5571 5568 5564 5560 5557 5554 5550 5546 5542 5539 5536 5532 5529 5527
5613 5611 5609 5607 5605 5603 5601 5599 5597 5595 5594 5592 5590 5588 5586 5585 5583 5582 5580 5579 5578 5576 5574 5572 5569 5567 5564 5561 5558 5556 5553 5549 5545 5542 5539 5535 5531 5528 5524 5521 5518 5515 5512
5599 5597 5595 5593 5591 5589 5587 5585 5583 5581 5580 5578 5576 5574 5572 5570 5569 5567 5566 5564 5563 5561 5560 5557 5554 5552 5549 5546 5543 5540 5537 5534 5530 5527 5524 5520 5517 5513 5510 5506 5503 5500 5497
5586 5583 5581 5579 5577 5575 5573 5571 5569 5567 5565 5563 5561 5560 5558 5556 5554 5552 5551 5549 5548 5546 5545 5542 5539 5537 5534 5531 5528 5525 5521 5518 5515 5512 5509 5506 5502 5499 5496 5492 5489 5485 5483
5571 5569 5567 5565 5562 5560 5558 5556 5554 5552 5550 5548 5547 5545 5543 5541 5539 5538 5536 5534 5533 5531 5529 5527 5524 5522 5519 5516 5513 5509 5506 5503 5500 5498 5495 5491 5488 5485 5481 5478 5474 5471 5469
5557 5554 5552 5550 5548 5546 5543 5541 5539 5537 5535 5534 5532 5530 5529 5527 5525 5523 5521 5520 5518 5516 5514 5512 5509 5507 5504 5501 5498 5494 5491 5488 5486 5483 5480 5477 5474 5471 5467 5464 5461 5458 5455
5541 5539 5537 5535 5533 5531 5529 5526 5524 5522 5520 5519 5517 5515 5514 5512 5510 5508 5506 5505 5503 5501 5499 5497 5494 5491 5489 5486 5483 5480 5477 5474 5471 5469 5466 5463 5460 5457 5454 5451 5447 5445 5443
5526 5524 5522 5520 5518 5516 5514 5512 5510 5508 5506 5504 5502 5501 5499 5497 5495 5493 5491 5490 5487 5485 5483 5482 5479 5476 5474 5471 5468 5466 5463 5460 5457 5455 5452 5449 5446 5443 5440 5437 5434 5432 5430
5511 5509 5507 5505 5503 5501 5499 5497 5496 5494 5492 5490 5488 5486 5484 5482 5481 5479 5477 5475 5473 5470 5468 5466 5464 5461 5459 5456 5454 5452 5449 5447 5444 5441 5438 5435 5432 5430 5427 5425 5422 5420 5418
5496 5494 5492 5490 5488 5486 5484 5482 5481 5479 5478 5477 5474 5472 5470 5468 5466 5464 5462 5460 5458 5456 5453 5451 5449 5447 5445 5442 5440 5438 5435 5433 5430 5427 5424 5422 5419 5417 5414 5412 5410 5408 5407
5481 5479 5477 5475 5473 5472 5470 5468 5467 5465 5464 5462 5461 5458 5456 5454 5452 5449 5447 5445 5443 5441 5439 5437 5435 5433 5431 5428 5426 5424 5421 5419 5416 5414 5411 5409 5406 5404 5402 5400 5399 5397 5396
5467 5465 5463 5461 5459 5458 5456 5455 5453 5452 5450 5449 5447 5445 5442 5440 5438 5436 5433 5431 5429 5427 5425 5423 5421 5419 5417 5415 5413 5411 5408 5406 5404 5401 5399 5397 5395 5393 5391 5389 5388 5386 5385
5454 5452 5450 5448 5446 5444 5443 5441 5440 5439 5437 5435 5433 5430 5428 5427 5425 5422 5420 5417 5415 5413 5412 5410 5408 5406 5404 5402 5400 5398 5396 5394 5392 5390 5388 5386 5384 5382 5381 5379 5378 5377 5376
5441 5439 5437 5435 5433 5432 5430 5428 5427 5425 5424 5422 5420 5417 5415 5413 5411 5409 5407 5405 5403 5401 5399 5397 5396 5394 5392 5390 5388 5386 5384 5382 5380 5378 5377 5375 5374 5372 5371 5370 5369 5368 5367
5428 5426 5424 5423 5421 5419 5418 5416 5414 5412 5411 5409 5407 5405 5403 5400 5398 5396 5394 5392 5390 5389 5387 5385 5384 5382 5380 5378 5377 5375 5374 5372 5370 5368 5367 5365 5364 5363 5362 5361 5361 5360 5359
5416 5414 5412 5410 5409 5407 5406 5404 5402 5400 5398 5397 5395 5392 5390 5388 5386 5384 5382 5380 5379 5377 5375 5374 5373 5371 5370 5368 5367 5365 5363 5362 5360 5359 5358 5357 5356 5355 5354 5354 5353 5352 5352
5404 5402 5400 5399 5397 5395 5394 5392 5390 5388 5386 5384 5382 5380 5379 5377 5375 5373 5371 5369 5368 5366 5365 5364 5362 5361 5360 5359 5357 5356 5355 5353 5352 5351 5350 5349 5348 5347 5347 5346 5346 5346 5345
5392 5391 5389 5387 5385 5384 5382 5380 5378 5377 5375 5373 5371 5369 5367 5365 5364 5362 5360 5359 5357 5356 5355 5354 5353 5352 5351 5350 5349 5348 5346 5345 5344 5343 5342 5341 5341 5340 5340 5340 5339 5339 5339
Wind_Speed
30 31 32 33 34 35 36 37 38 38 39 39 40 40 40 40 41 41 43 43 44 44 45 45 45 46 47 47 48 48 48 49 49 50 51 52 52 52 53 53 53 53 53
30 32 33 34 35 36 37 39 40 40 41 41 42 42 42 42 43 43 44 45 45 46 46 46 47 47 48 49 49 49 50 50 50 50 50 51 52 52 52 52 52 52 51
32 33 34 36 38 39 40 41 42 42 42 43 43 43 44 44 44 45 45 46 46 46 47 47 48 48 48 49 49 50 50 50 51 51 51 52 52 53 53 53 53 52 52
34 35 37 38 40 41 42 42 42 43 43 44 44 45 45 45 46 46 46 46 47 47 48 48 49 49 49 49 50 50 50 51 51 51 52 52 53 53 53 53 53 53 52
36 38 39 41 41 42 43 43 43 43 44 44 45 45 46 47 47 47 47 47 48 48 48 49 49 50 49 50 50 50 50 51 51 51 52 53 53 54 54 54 53 53 52
39 40 42 43 43 44 44 44 44 44 45 45 45 46 46 47 47 48 48 48 48 49 49 49 49 50 50 50 51 51 51 52 52 52 53 53 53 53 53 53 53 53 52
40 42 43 44 44 44 44 45 45 45 45 46 46 46 46 47 48 48 48 49 49 50 50 50 50 50 50 51 51 52 52 52 53 53 53 53 53 53 53 53 53 53 52
42 42 43 44 44 44 45 45 46 46 46 47 47 47 47 48 49 49 49 49 50 50 50 50 50 50 51 52 52 53 53 53 54 54 54 54 54 54 53 53 52 52 52
43 43 44 45 45 45 45 45 46 46 47 47 47 47 48 48 49 49 50 50 50 51 51 51 51 51 52 53 53 54 54 54 54 54 54 54 54 53 53 53 52 52 52
44 45 45 46 46 46 46 46 47 47 47 47 47 48 49 49 50 50 50 50 50 50 50 51 51 52 52 53 53 54 54 54 54 54 53 53 53 53 53 53 52 52 51
46 46 46 46 46 47 47 48 48 48 48 48 48 49 49 50 50 50 50 50 50 50 50 51 51 51 52 53 53 53 53 53 54 53 53 53 53 52 53 53 52 51 51
47 47 47 47 48 48 48 49 49 50 50 50 49 49 50 50 50 50 50 50 50 50 50 50 51 51 51 52 52 52 52 53 52 52 52 52 52 52 52 52 51 50 49
47 47 48 48 48 49 49 49 50 50 51 50 50 50 50 50 50 50 51 51 51 51 51 50 51 51 51 51 51 51 51 51 50 50 50 50 50 50 50 50 49 48 48
47 48 48 49 49 48 48 49 49 50 50 50 50 50 50 50 50 50 50 51 51 51 51 51 51 51 51 51 51 50 50 50 49 49 48 48 48 48 48 48 47 47 46
48 48 48 48 48 48 48 48 49 49 49 49 49 50 49 49 49 49 49 49 49 49 50 50 50 50 50 50 50 49 48 48 47 47 47 47 47 47 47 46 45 45 44
48 48 48 48 48 48 48 48 48 48 48 48 48 48 48 48 48 48 48 48 48 48 49 49 49 49 49 48 48 47 47 46 46 47 47 47 46 46 45 44 43 42 41
47 47 46 46 47 47 47 47 47 47 47 47 47 47 47 47 47 47 47 47 47 48 48 48 48 47 47 47 46 46 46 47 47 46 46 45 45 44 43 42 41 40 39
47 47 47 46 46 46 46 46 46 45 45 45 45 46 46 46 46 46 46 47 47 47 47 47 46 46 46 45 45 46 46 46 45 45 44 43 43 42 41 40 39 38 38
46 46 46 46 45 45 45 44 44 44 44 44 44 45 45 45 45 46 46 46 46 46 45 45 45 44 44 44 44 44 44 43 42 42 41 41 41 40 39 37 37 36 36
44 44 44 44 44 43 43 43 43 43 43 43 44 44 44 44 44 44 44 44 44 43 43 43 43 43 43 43 42 42 41 41 40 40 39 38 38 36 35 34 34 33 33
42 41 42 42 41 41 41 41 41 41 42 42 42 43 43 43 43 43 43 42 42 41 41 40 40 40 41 40 40 39 38 38 38 37 36 35 34 33 33 32 31 30 30
39 40 40 39 39 39 39 39 40 40 41 41 41 41 41 41 41 41 41 40 39 39 38 38 37 38 38 37 36 36 36 35 35 34 33 32 32 30 29 29 28 27 27
38 38 38 38 38 38 38 39 39 39 39 39 39 40 40 39 39 39 39 38 38 37 37 36 36 36 35 34 34 34 33 32 32 30 30 30 29 28 27 27 26 25 24
38 37 37 37 37 37 37 37 37 38 38 38 39 39 39 38 38 37 37 36 35 35 35 35 34 33 32 32 32 31 30 29 28 27 27 27 26 26 25 24 23 23 23
36 36 36 36 36 36 36 36 37 37 37 37 37 37 37 37 37 36 35 34 33 33 32 32 31 30 30 29 29 28 27 27 26 25 25 24 24 23 22 22 21 21 21
36 36 35 35 35 35 35 35 35 35 35 35 34 34 34 34 33 33 32 31 31 30 30 29 29 28 28 27 26 25 25 25 24 23 22 22 21 21 21 20 20 19 19
Wind_Direction
262 263 266 267 269 270 272 273 273 273 273 273 272 271 270 271 271 272 273 273 274 275 277 278 279 279 279 280 281 283 284 284 284 285 285 286 287 288 289 289 290 290 289
264 266 268 269 270 271 272 273 273 274 274 274 272 271 270 271 271 272 274 275 275 276 277 278 280 281 281 281 282 283 284 285 285 286 286 287 288 288 289 290 290 290 290
266 269 271 272 272 273 274 274 274 274 274 274 273 272 271 271 272 273 274 275 276 277 278 280 281 281 281 281 282 283 284 285 286 286 287 287 288 289 289 290 290 290 290
270 272 274 275 275 275 275 275 275 275 275 274 274 273 272 272 272 273 274 275 276 278 279 279 281 281 281 282 282 283 284 285 286 286 287 288 289 289 289 289 290 290 289
273 275 277 277 277 277 276 275 275 276 276 275 275 274 274 274 274 274 274 275 276 277 278 280 280 281 281 281 282 283 284 285 286 286 287 288 289 289 289 289 289 289 289
274 275 276 277 277 277 277 277 276 277 276 276 275 275 275 275 274 274 274 275 275 277 278 279 280 280 281 281 282 283 284 285 285 286 287 288 288 288 288 288 288 288 288
275 276 277 277 277 277 277 277 277 276 276 276 276 275 275 275 275 275 275 275 276 277 277 278 279 280 281 282 283 283 284 284 285 286 287 288 288 287 287 287 287 287 287
276 277 277 277 277 277 277 277 276 276 276 276 276 276 275 275 275 275 276 277 277 277 278 279 279 280 281 282 282 283 283 284 285 285 286 286 286 286 286 286 287 287 286
276 277 277 277 277 277 277 277 277 276 277 277 276 276 275 276 276 276 276 277 277 278 279 279 279 280 281 281 282 283 284 284 284 285 285 286 286 286 286 286 287 287 287
277 277 277 277 277 277 277 277 277 276 276 276 276 276 276 276 276 277 277 278 278 278 279 279 280 280 281 282 283 283 284 284 284 284 284 285 285 286 286 287 287 286 286
277 277 277 277 277 276 276 276 276 276 276 276 276 276 277 276 277 277 278 278 278 279 279 279 280 281 282 283 283 284 284 284 284 284 284 285 285 285 286 287 287 286 286
277 278 278 278 277 277 277 277 277 277 276 276 276 277 277 277 277 277 278 278 279 279 280 280 281 282 283 284 285 285 285 285 285 285 285 285 285 285 286 287 286 286 286
278 278 278 278 278 278 278 278 277 277 277 277 277 277 277 277 277 277 277 278 279 279 280 281 282 283 283 284 285 286 286 285 285 285 286 286 286 286 287 288 287 286 286
278 278 279 279 279 279 278 278 278 278 277 277 277 277 276 276 277 277 277 278 279 279 280 281 282 283 284 285 285 286 286 285 285 285 285 286 286 287 288 288 287 286 285
279 279 279 279 278 278 278 278 278 277 277 277 277 277 277 277 277 278 278 278 279 280 281 282 283 284 284 284 285 285 285 285 285 285 286 286 286 287 288 288 287 286 285
280 279 279 279 279 278 278 278 277 277 277 277 277 277 278 278 278 278 278 278 279 280 281 283 283 284 284 284 284 284 284 285 285 285 286 286 287 287 287 286 286 285 285
280 280 279 279 278 277 277 277 277 277 278 278 278 278 278 278 278 278 279 280 280 281 282 283 283 284 284 284 284 284 285 285 285 285 286 286 286 286 286 285 285 285 284
280 279 279 279 278 278 277 277 278 278 277 277 277 278 278 279 279 280 280 280 281 282 282 283 283 284 284 284 284 285 286 286 286 285 286 286 287 286 286 285 284 284 284
280 279 279 278 278 278 278 277 277 277 277 277 278 278 279 279 280 281 281 281 282 282 282 283 283 284 284 285 285 285 286 286 286 285 286 286 286 286 285 285 284 283 284
280 280 279 279 278 278 277 276 277 277 277 279 279 280 280 280 281 282 282 283 283 283 283 283 283 283 283 284 284 285 285 285 285 285 286 286 286 285 285 284 283 283 282
281 281 281 280 279 278 277 277 278 278 279 280 281 281 281 281 282 283 283 283 283 283 283 283 283 283 284 284 284 285 285 285 285 285 285 286 285 284 284 283 283 282 282
282 282 281 280 278 278 279 279 279 279 280 281 281 281 282 282 283 283 283 283 283 283 283 283 283 283 284 283 284 285 286 285 285 285 284 285 284 283 283 282 282 281 281
282 282 281 280 279 279 279 280 280 280 281 282 282 281 282 282 283 283 284 283 282 282 282 282 282 283 283 284 285 286 286 285 285 284 283 283 282 281 281 280 279 279 279
281 282 282 281 279 279 281 280 280 281 282 282 282 281 281 282 283 284 284 283 282 282 282 281 281 281 282 283 284 285 285 285 285 284 284 283 281 280 280 278 278 278 278
282 282 282 282 281 280 281 281 281 282 282 283 283 282 281 282 282 283 283 282 282 282 281 280 280 281 282 282 283 283 285 285 284 284 284 283 281 279 278 276 277 278 277
282 282 282 282 281 281 281 282 282 282 283 283 283 283 283 283 282 282 282 282 281 280 279 279 280 280 280 280 281 282 283 283 282 282 282 282 280 278 277 276 276 275 275